EW0706 Weather Reports


time (UTC)temp
C
wind
direction
speed
KPH
gust
KPH
rain 1hr
cm
rain 24hr
cm
rain mn
cm
humidity
%
barometer
mb
20260506020342 23 0.0 0.0 0.00 0.00 0.00 21 1008.0
20260506015341 24 0.0 0.0 0.00 0.00 0.00 22 1008.0
20260506014341 24 0.0 0.0 0.00 0.00 0.00 22 1007.7
20260506013339 24 0.0 0.0 0.00 0.00 0.00 22 1007.7
20260506012338 25 0.0 0.0 0.00 0.00 0.00 22 1007.7
20260506011337 25 0.0 0.0 0.00 0.00 0.00 22 1007.7
20260506010337 25 0.0 0.0 0.00 0.00 0.00 22 1007.7
20260506005335 25 0.0 0.0 0.00 0.00 0.00 21 1007.3
20260506004334 25 0.0 0.0 0.00 0.00 0.00 22 1007.3
20260506003333 25 0.0 0.0 0.00 0.00 0.00 21 1007.4
20260506002301 25 0.0 0.0 0.00 0.00 0.00 22 1007.4
20260506001229 25 0.0 0.0 0.00 0.00 0.00 23 1007.4
20260506000155 25 0.0 0.0 0.00 0.00 0.00 22 1007.4
20260505235124 25 0.0 0.0 0.00 0.00 0.00 23 1007.4
20260505234122 25 0.0 0.0 0.00 0.00 0.00 24 1007.3
20260505233121 25 0.0 0.0 0.00 0.00 0.00 23 1007.4
20260505232120 25 0.0 0.0 0.00 0.00 0.00 23 1007.4
20260505231119 25 0.0 0.0 0.00 0.00 0.00 23 1007.4
20260505230118 25 0.0 0.0 0.00 0.00 0.00 22 1007.4
20260505225117 24 0.0 0.0 0.00 0.00 0.00 24 1007.4
20260505224116 25 0.0 0.0 0.00 0.00 0.00 25 1007.4
20260505223115 25 0.0 0.0 0.00 0.00 0.00 24 1007.8
20260505222114 25 0.0 0.0 0.00 0.00 0.00 24 1007.8
20260505221042 25 0.0 0.0 0.00 0.00 0.00 25 1007.8
20260505220042 25 0.0 0.0 0.00 0.00 0.00 25 1008.1
20260505215040 24 0.0 0.0 0.00 0.00 0.00 25 1007.8
20260505213937 24 0.0 0.0 0.00 0.00 0.00 25 1008.1
20260505212936 24 0.0 0.0 0.00 0.00 0.00 25 1008.1
20260505211935 25 0.0 0.0 0.00 0.00 0.00 25 1008.1
20260505210934 25 0.0 0.0 0.00 0.00 0.00 25 1008.1
20260505205933 25 0.0 0.0 0.00 0.00 0.00 25 1008.5
20260505204901 25 0.0 0.0 0.00 0.00 0.00 26 1008.5
20260505203900 25 0.0 0.0 0.00 0.00 0.00 26 1008.5
20260505202828 24 0.0 0.0 0.00 0.00 0.00 27 1008.5
20260505201827 24 0.0 0.0 0.00 0.00 0.00 27 1008.5
20260505200825 24 0.0 0.0 0.00 0.00 0.00 28 1008.5
20260505195824 24 0.0 0.0 0.00 0.00 0.00 28 1008.9
20260505194823 24 0.0 0.0 0.00 0.00 0.00 28 1008.9
20260505193822 24 0.0 0.0 0.00 0.00 0.00 29 1008.9
20260505192821 24 0.0 0.0 0.00 0.00 0.00 32 1008.9
20260505191749 24 0.0 0.0 0.00 0.00 0.00 32 1009.2
20260505190749 24 0.0 0.0 0.00 0.00 0.00 32 1009.2
20260505185717 23 0.0 0.0 0.00 0.00 0.00 34 1009.2
20260505184715 23 0.0 0.0 0.00 0.00 0.00 34 1009.2
20260505183714 23 0.0 0.0 0.00 0.00 0.00 35 1009.2
20260505182713 23 0.0 0.0 0.00 0.00 0.00 35 1009.6
20260505181712 23 0.0 0.0 0.00 0.00 0.00 35 1009.6
20260505180711 23 0.0 0.0 0.00 0.00 0.00 37 1009.6
20260505175710 22 0.0 0.0 0.00 0.00 0.00 38 1009.6
20260505174710 22 0.0 0.0 0.00 0.00 0.00 38 1009.6
20260505173638 22 0.0 0.0 0.00 0.00 0.00 40 1009.5
20260505172606 22 0.0 0.0 0.00 0.00 0.00 40 1009.5
20260505171604 21 0.0 0.0 0.00 0.00 0.00 43 1009.5
20260505170602 21 0.0 0.0 0.00 0.00 0.00 43 1009.5
20260505165602 21 0.0 0.0 0.00 0.00 0.00 44 1009.5
20260505164601 21 0.0 0.0 0.00 0.00 0.00 43 1009.8
20260505163600 21 0.0 0.0 0.00 0.00 0.00 44 1009.8
20260505162559 20 0.0 0.0 0.00 0.00 0.00 46 1009.5
20260505161558 20 0.0 0.0 0.00 0.00 0.00 46 1009.8
20260505160455 20 0.0 0.0 0.00 0.00 0.00 47 1009.8
20260505153348 21 0.0 0.0 0.00 0.00 0.00 44 1009.9
20260505152347 21 0.0 0.0 0.00 0.00 0.00 43 1009.6
20260505151346 21 0.0 0.0 0.00 0.00 0.00 44 1009.6
20260505150344 21 0.0 0.0 0.00 0.00 0.00 45 1009.5
20260505140338 19 0.0 0.0 0.00 0.00 0.00 49 1009.4
20260505130128 18 0.0 0.0 0.00 0.00 0.00 49 1009.1
20260505124125 18 0.0 0.0 0.00 0.00 0.00 49 1008.8
20260505123123 18 0.0 0.0 0.00 0.00 0.00 49 1008.8
20260505122122 18 0.0 0.0 0.00 0.00 0.00 49 1008.5
20260505121121 18 0.0 0.0 0.00 0.00 0.00 49 1008.5
20260505120121 18 0.0 0.0 0.00 0.00 0.00 48 1008.5
20260505115120 18 0.0 0.0 0.00 0.00 0.00 48 1008.5
20260505114048 18 0.0 0.0 0.00 0.00 0.00 47 1008.5
20260505113047 19 0.0 0.0 0.00 0.00 0.00 47 1008.5
20260505112046 19 0.0 0.0 0.00 0.00 0.00 46 1008.5
20260505111045 19 0.0 0.0 0.00 0.00 0.00 45 1008.5
20260505101907 20 0.0 0.0 0.00 0.00 0.00 44 1009.2
20260505100905 20 0.0 0.0 0.00 0.00 0.00 44 1008.9
20260505095904 20 0.0 0.0 0.00 0.00 0.00 44 1009.2
20260505094904 20 0.0 0.0 0.00 0.00 0.00 43 1009.2
20260505093902 20 0.0 0.0 0.00 0.00 0.00 42 1009.2
20260505092901 20 0.0 0.0 0.00 0.00 0.00 41 1009.2
20260505091900 20 0.0 0.0 0.00 0.00 0.00 40 1009.2
20260505090859 20 0.0 0.0 0.00 0.00 0.00 40 1009.2
20260505085858 20 0.0 0.0 0.00 0.00 0.00 40 1009.2
20260505084857 21 0.0 0.0 0.00 0.00 0.00 40 1009.5
20260505083856 21 0.0 0.0 0.00 0.00 0.00 39 1009.6
20260505082855 21 0.0 0.0 0.00 0.00 0.00 38 1009.9
20260505081853 21 0.0 0.0 0.00 0.00 0.00 38 1009.9
20260505080852 21 0.0 0.0 0.00 0.00 0.00 37 1009.9
20260505075850 21 0.0 0.0 0.00 0.00 0.00 37 1009.9
20260505074818 21 0.0 0.0 0.00 0.00 0.00 36 1009.9
20260505073817 21 0.0 0.0 0.00 0.00 0.00 36 1009.9
20260505072817 21 0.0 0.0 0.00 0.00 0.00 36 1009.6
20260505071744 21 0.0 0.0 0.00 0.00 0.00 35 1009.9
20260505070743 21 0.0 0.0 0.00 0.00 0.00 35 1009.9
20260505065742 22 0.0 0.0 0.00 0.00 0.00 34 1010.3
20260505064741 22 0.0 0.0 0.00 0.00 0.00 33 1009.9
20260505063740 22 0.0 0.0 0.00 0.00 0.00 32 1009.9
20260505062738 22 0.0 0.0 0.00 0.00 0.00 32 1009.9
20260505061737 22 0.0 0.0 0.00 0.00 0.00 31 1009.6
20260505060736 22 0.0 0.0 0.00 0.00 0.00 32 1009.6
20260505055735 22 0.0 0.0 0.00 0.00 0.00 35 1009.3
20260505054734 22 0.0 0.0 0.00 0.00 0.00 35 1009.3
20260505053733 23 0.0 0.0 0.00 0.00 0.00 34 1009.3
20260505052732 23 0.0 0.0 0.00 0.00 0.00 35 1009.6
20260505051626 23 0.0 0.0 0.00 0.00 0.00 35 1009.6
20260505050554 23 0.0 0.0 0.00 0.00 0.00 35 1010.0
20260505041518 23 0.0 0.0 0.00 0.00 0.00 37 1009.7
20260505040446 23 0.0 0.0 0.00 0.00 0.00 37 1009.7
20260505035445 23 0.0 0.0 0.00 0.00 0.00 36 1009.7
20260505034443 23 0.0 0.0 0.00 0.00 0.00 36 1009.4
20260505033442 23 0.0 0.0 0.00 0.00 0.00 36 1009.4
20260505032441 23 0.0 0.0 0.00 0.00 0.00 36 1009.4
20260505031440 23 0.0 0.0 0.00 0.00 0.00 36 1009.0
20260505030438 23 0.0 0.0 0.00 0.00 0.00 36 1008.7
20260505025438 23 0.0 0.0 0.00 0.00 0.00 36 1008.7
20260505024437 24 0.0 0.0 0.00 0.00 0.00 35 1008.7
20260505023436 24 0.0 0.0 0.00 0.00 0.00 35 1009.0
20260505022435 24 0.0 0.0 0.00 0.00 0.00 34 1008.7
20260505021434 24 0.0 0.0 0.00 0.00 0.00 34 1008.7